N9MOX Weather Reports


Display with metric or nautical units.
time (UTC)temp
F
wind
direction
speed
MPH
gust
MPH
rain 1hr
in
rain 24hr
in
rain mn
in
humidity
%
barometer
mb
20260906044556 73 50 2.0 5.0 0.00 0.01 0.00 94 1012.4
20260906043054 73 55 0.0 4.0 0.00 0.01 0.00 93 1012.3
20260906041550 73 65 1.0 6.0 0.00 0.01 0.00 93 1012.0
20260906040049 74 56 2.0 9.0 0.00 0.01 0.00 93 1012.0
20260906034544 74 57 4.0 11.0 0.00 0.01 0.01 92 1011.9
20260906033045 75 79 4.0 12.0 0.00 0.01 0.01 92 1012.0
20260906031542 75 69 5.0 10.0 0.00 0.01 0.01 91 1012.0
20260906030041 75 81 4.0 9.0 0.00 0.01 0.01 92 1012.0
20260906024540 75 73 4.0 11.0 0.00 0.01 0.01 91 1011.9
20260906023045 76 80 6.0 16.0 0.00 0.01 0.01 91 1011.8
20260906021540 75 58 4.0 10.0 0.00 0.01 0.01 91 1011.9
20260906020039 76 76 5.0 11.0 0.00 0.01 0.01 90 1011.5
20260906014544 76 29 5.0 11.0 0.00 0.01 0.01 88 1011.4
20260906013040 75 73 5.0 8.0 0.00 0.01 0.01 87 1010.9
20260906011537 75 51 0.0 2.0 0.00 0.01 0.01 86 1010.9
20260906010037 75 51 0.0 3.0 0.00 0.01 0.01 85 1010.7
20260906004536 75 47 3.0 5.0 0.00 0.01 0.01 84 1010.7
20260906003036 76 49 0.0 2.0 0.00 0.01 0.01 84 1010.2
20260906001535 76 49 1.0 3.0 0.00 0.01 0.01 83 1010.1
20260906000035 77 49 1.0 4.0 0.00 0.01 0.01 81 1010.1
20260905234535 77 11 1.0 4.0 0.00 0.01 0.01 81 1010.1
20260905233037 78 61 3.0 7.0 0.00 0.01 0.01 80 1010.1
20260905231544 79 54 5.0 13.0 0.00 0.01 0.01 77 1010.3
20260905230032 82 35 10.0 17.0 0.00 0.01 0.01 70 1010.5
20260905224531 89 22 3.0 6.0 0.00 0.01 0.01 66 1010.1
20260905223032 90 327 3.0 12.0 0.00 0.01 0.01 64 1009.7
20260905221537 90 327 3.0 9.0 0.00 0.01 0.01 64 1009.2
20260905220029 89 318 3.0 8.0 0.00 0.01 0.01 66 1009.4
20260905214529 88 281 3.0 6.0 0.00 0.01 0.01 66 1009.4
20260905213034 88 281 3.0 8.0 0.00 0.01 0.01 64 1009.7
20260905211532 89 276 4.0 9.0 0.00 0.01 0.01 61 1009.3
20260905210029 90 277 3.0 9.0 0.00 0.01 0.01 61 1009.8
20260905204523 91 319 5.0 8.0 0.00 0.01 0.01 61 1009.7
20260905203022 92 331 3.0 10.0 0.00 0.01 0.01 58 1009.9
20260905201526 92 274 4.0 10.0 0.00 0.01 0.01 57 1010.1
20260905200017 92 282 2.0 9.0 0.00 0.01 0.01 59 1010.2
20260905194515 91 217 3.0 9.0 0.00 0.01 0.01 57 1010.3
20260905193016 92 257 5.0 10.0 0.00 0.01 0.01 57 1010.3
20260905191512 91 272 7.0 14.0 0.00 0.01 0.01 57 1010.7
20260905190009 91 308 3.0 8.0 0.00 0.01 0.01 59 1010.9
20260905184508 90 250 3.0 9.0 0.00 0.01 0.01 59 1011.0
20260905183006 90 194 2.0 6.0 0.00 0.01 0.01 61 1011.3
20260905181502 89 236 2.0 8.0 0.00 0.01 0.01 60 1011.3
20260905180059 88 267 4.0 11.0 0.00 0.01 0.01 61 1011.4
20260905174600 88 247 1.0 12.0 0.00 0.01 0.01 62 1011.5
20260905173058 87 205 3.0 7.0 0.00 0.01 0.01 61 1011.7
20260905171553 86 223 3.0 7.0 0.00 0.01 0.01 63 1011.9
20260905170048 84 167 2.0 7.0 0.00 0.01 0.01 65 1012.2
20260905164544 83 209 1.0 3.0 0.00 0.01 0.01 69 1012.6
20260905163043 81 208 3.0 6.0 0.00 0.01 0.01 69 1012.6
20260905161542 81 179 2.0 6.0 0.00 0.01 0.01 69 1012.8
20260905160042 82 190 3.0 9.0 0.00 0.01 0.01 67 1012.8
20260905154539 82 194 2.0 8.0 0.00 0.01 0.01 68 1012.7
20260905153036 80 216 2.0 10.0 0.00 0.01 0.01 71 1012.7
20260905151532 79 154 2.0 6.0 0.00 0.01 0.01 74 1012.6
20260905150028 78 173 3.0 10.0 0.00 0.01 0.01 75 1012.5
20260905144525 77 179 4.0 11.0 0.00 0.01 0.01 75 1012.6
20260905143028 76 173 2.0 6.0 0.00 0.01 0.01 76 1012.9
20260905141519 75 175 2.0 8.0 0.00 0.01 0.01 79 1013.0
20260905140017 74 162 3.0 6.0 0.00 0.01 0.01 81 1013.1
20260905134518 73 174 2.0 5.0 0.00 0.01 0.01 83 1013.1
20260905133018 73 163 2.0 5.0 0.00 0.01 0.01 85 1013.2
20260905131530 72 167 0.0 4.0 0.00 0.01 0.01 86 1013.4
20260905130014 71 182 0.0 2.0 0.00 0.01 0.01 87 1013.1
20260905124524 70 190 0.0 5.0 0.00 0.01 0.01 88 1013.0
20260905123010 70 146 0.0 3.0 0.00 0.01 0.01 88 1013.0
20260905121520 70 65 0.0 2.0 0.00 0.01 0.01 89 1013.0
20260905120009 70 89 1.0 9.0 0.00 0.01 0.01 88 1013.2
20260905114517 70 102 0.0 4.0 0.01 0.01 0.01 89 1012.8
20260905113005 70 79 0.0 12.0 0.01 0.01 0.01 89 1012.9
20260905111504 70 126 1.0 10.0 0.01 0.01 0.01 90 1012.7
20260905110001 70 110 2.0 9.0 0.01 0.01 0.01 88 1012.5
20260905104558 72 80 4.0 16.0 0.00 0.00 0.00 85 1012.9
20260905103054 72 93 4.0 19.0 0.00 0.00 0.00 87 1012.8
20260905101608 73 89 8.0 19.0 0.00 0.00 0.00 95 1012.3
20260905100048 73 190 0.0 0.0 0.00 0.00 0.00 95 1011.4
20260905094547 73 190 0.0 0.0 0.00 0.00 0.00 95 1011.4
20260905093047 73 190 0.0 0.0 0.00 0.00 0.00 95 1011.2
20260905091548 73 190 0.0 0.0 0.00 0.00 0.00 95 1011.3
20260905090044 73 190 0.0 0.0 0.00 0.00 0.00 95 1011.3
20260905084600 74 190 0.0 0.0 0.00 0.00 0.00 94 1011.2
20260905083043 74 190 0.0 0.0 0.00 0.00 0.00 94 1011.3
20260905081544 74 190 0.0 0.0 0.00 0.00 0.00 94 1011.2
20260905080040 74 190 0.0 0.0 0.00 0.00 0.00 93 1011.0
20260905074538 75 190 0.0 1.0 0.00 0.00 0.00 93 1010.6
20260905073038 75 190 0.0 3.0 0.00 0.00 0.00 93 1010.3
20260905071535 75 190 0.0 0.0 0.00 0.00 0.00 92 1010.5
20260905070033 75 190 0.0 1.0 0.00 0.00 0.00 92 1010.6
20260905064532 75 190 0.0 2.0 0.00 0.00 0.00 92 1010.7
20260905063028 75 190 0.0 1.0 0.00 0.00 0.00 91 1011.1
20260905061525 75 190 0.0 3.0 0.00 0.00 0.00 92 1011.4
20260905060022 75 197 0.0 4.0 0.00 0.00 0.00 92 1011.4
20260905054520 75 119 0.0 2.0 0.00 0.00 0.00 92 1011.7
20260905053017 74 118 0.0 1.0 0.00 0.00 0.00 92 1011.8
20260905051529 74 118 0.0 2.0 0.00 0.00 0.00 92 1012.0
20260905050015 74 117 0.0 1.0 0.00 0.00 0.00 92 1011.9